Regional Weather Roundup
Issued by NWS Bismarck, ND

Home | Current Version | Previous Version | Text Only | Print | Product List | Glossary On
Versions: 1 2 3 4 5 6 7 8 9 10 11 12 13 14 15 16 17 18 19 20 21 22 23 24 25 26 27 28 29 30 31 32 33 34 35 36 37 38 39 40 41 42 43 44 45 46 47 48 49 50
000
ASUS43 KBIS 280110
RWRBIS

NWR BROADCAST TEXT
NATIONAL WEATHER SERVICE BISMARCK ND
800 PM CDT SUN JUL 27 2014

NOTE: "FAIR" INDICATES FEW OR NO CLOUDS BELOW 12,000 FEET WITH NO
SIGNIFICANT WEATHER AND/OR OBSTRUCTIONS TO VISIBILITY.


CITY           SKY/WX    TMP DP  RH WIND       PRES   REMARKS
WILLISTON      SUNNY     72  52  49 E13       30.28S
MINOT          PTSUNNY   67  50  54 NW9       30.27S
MINOT AFB      CLOUDY    67  52  57 N5        30.26S
BISMARCK       MOSUNNY   67  52  58 N10       30.27S
DICKINSON      SUNNY     69  51  52 NE9       30.27F
GARRISON         N/A     67  51  56 N8        30.27F
HETTINGER ARPT SUNNY     69  53  56 NE10      30.29F
JAMESTOWN      PTSUNNY   65  53  65 N8        30.22S
CARRINGTON     CLOUDY    63  55  77 N7        30.26S
CROSBY         FAIR      66  57  72 E5        30.28F
HARVEY         CLOUDY    63  55  77 N6        30.26S
HAZEN          FAIR      66  50  55 NE8       30.28F
LINTON         MOCLDY    66  54  63 N8        30.26S
MANDAN         MOCLDY    66  50  55 NW8       30.28F
RUGBY          MOCLDY    63  55  77 NW5       30.26S
STANLEY        FAIR      64  54  68 N3        30.29S
TIOGA          FAIR      66  55  68 N5        30.32S
WATFORD CITY   FAIR      68  52  56 NE5       30.27R
$$

CITY           SKY/WX    TMP DP  RH WIND       PRES   REMARKS
GRAND FORKS    PTSUNNY   66  57  72 N7        30.18R
GRAND FORKS AF CLOUDY    66  58  75 N9        30.20R
DEVILS LAKE    CLOUDY    63  54  72 NW9       30.22S
FARGO          CLOUDY    67  57  70 N13       30.17S
CANDO          CLOUDY    63  54  72 N6        30.25S
CAVALIER       CLOUDY    68  54  60 NW9       30.20R
GRAFTON        CLOUDY    66  55  68 N7        30.19S
GWINNER        CLOUDY    66  55  68 NW9       30.21S
LANGDON        MOCLDY    63  52  67 NW7       30.23S
ROLLA          CLOUDY    63  55  77 N6        30.27S
WALHALLA         N/A     64  54  68 NW7         N/A
$$

CITY           SKY/WX    TMP DP  RH WIND       PRES   REMARKS
ABERDEEN       CLOUDY    65  55  70 N14       30.22R
MOBRIDGE       MOSUNNY   68  52  56 N14G20    30.23S
BUFFALO          N/A     73  53  49 NE16      30.22S
RAPID CITY     SUNNY     76  52  43 E9        30.26S
GLASGOW        SUNNY     82  44  26 N10       30.22S
SIDNEY         SUNNY     75  52  43 NE10      30.27S
WOLF POINT     MOSUNNY   80  52  37 NE8       30.23S
GLENDIVE       MOSUNNY   77  50  38 E9        30.26S
MILES CITY     SUNNY     83  45  26 NE9       30.22F
BAKER          SUNNY     76  51  41 NE12      30.28S
$$

CITY           SKY/WX    TMP DP  RH WIND       PRES   REMARKS
BILLINGS       MOSUNNY   84  42  22 NE17      30.23S
GREAT FALLS    SUNNY     88  34  14 NE9       30.18F
REGINA         PTSUNNY   68  57  68 E7        30.27F
ESTEVAN        MOSUNNY   68  54  60 NE5       30.28R
$$




USA.gov is the U.S. government's official web portal to all federal, state and local government web resources and services.